TDRS 13

Last updated on July 6, 2021, 3:27 p.m. UTC

1 42915U 17047A   21186.78828062 -.00000088  00000-0  00000-0 0  9996
2 42915   4.9864 331.1575 0018771 111.1091 113.9864  1.00272684 14228
UTC
Height (km)
Latitude
Longitude
Inclination
Orbital Period
UTC large
Height (km)
Speed (km/s)
/
Latitude / Longitude
Inclination (degrees)
Orbital Period (minutes)
Azimuth
Elevation
Range (km)
Doppler Factor
iOS Compass Heading
iOS Angle